Date,TemperatureHighF,TemperatureAvgF,TemperatureLowF,DewpointHighF,DewpointAvgF,DewpointLowF,HumidityHigh,HumidityAvg,HumidityLow,PressureMaxIn,PressureMinIn,WindSpeedMaxMPH,WindSpeedAvgMPH,GustSpeedMaxMPH,PrecipitationSumIn
2013-5-8,87.6,79.3,71.4,64.8,61.4,57.8,72,55,44,29.96,29.87,23,12,23,0.00
2013-5-9,79.7,73.2,63.3,71.8,66.1,62.3,97,78,66,30.00,29.83,47,9,47,0.00
2013-5-10,86.2,70.3,62.4,68.5,63.8,60.9,99,82,50,30.04,29.82,38,10,40,0.00
2013-5-11,82.6,70.9,63.0,63.4,59.2,53.8,94,69,44,30.14,29.99,24,10,24,0.00
2013-5-12,82.4,69.2,58.8,58.9,54.5,50.5,84,61,40,30.25,30.11,19,6,19,0.00
2013-5-13,75.9,59.3,52.2,57.8,52.1,47.7,88,78,51,30.27,30.19,5,1,5,0.00
2013-5-14,87.1,78.4,59.0,66.7,63.6,56.8,96,62,46,30.23,30.01,24,10,24,0.00
2013-5-15,85.3,75.3,70.5,72.5,68.4,66.0,95,80,60,30.11,29.85,31,11,31,0.00
2013-5-16,96.1,80.2,72.3,72.3,69.1,66.5,83,70,43,29.87,29.73,23,11,23,0.00
2013-5-17,95.5,81.8,75.2,73.0,70.4,67.3,87,70,46,29.92,29.80,22,9,22,0.00
2013-5-18,95.4,81.6,71.6,72.2,68.1,63.0,92,66,42,29.93,29.82,27,10,28,0.00
2013-5-19,86.5,76.7,73.4,74.1,69.5,63.8,91,79,53,30.05,29.83,23,10,23,0.00
2013-5-20,93.7,81.0,72.3,72.0,69.8,67.4,92,71,47,30.04,29.84,30,11,30,0.35
2013-5-21,90.7,80.7,71.4,71.6,69.3,61.6,85,69,52,30.10,29.91,30,11,30,0.00
2013-5-22,92.3,78.1,61.3,71.9,64.8,56.8,89,65,43,30.14,30.03,17,6,17,0.00
2013-5-23,92.8,80.9,74.1,71.3,70.1,69.0,86,71,51,30.26,30.09,24,8,24,0.00
2013-5-24,82.8,76.9,73.8,71.3,70.4,69.4,87,81,69,30.33,30.23,17,6,17,0.02
2013-7-17,89.4,76.7,72.3,74.4,71.3,67.9,95,84,57,29.99,29.94,25,5,25,0.12
2013-7-18,95.9,79.1,72.3,73.6,70.0,65.5,95,76,43,29.99,29.84,22,6,30,0.07
2013-7-19,97.0,84.5,67.5,75.2,68.7,63.6,97,64,36,29.91,29.76,7,3,13,0.00
2013-7-20,98.4,91.6,74.7,72.9,68.5,65.6,94,50,39,30.15,29.76,20,6,27,0.46
2013-7-21,92.8,74.4,72.0,73.8,72.7,70.5,97,95,52,29.99,29.96,7,1,14,0.00
2013-7-22,97.3,69.3,0.0,75.4,72.5,69.1,78,48,43,30.06,0.00,14,7,21,0.00
2013-7-23,98.6,85.9,78.1,74.5,71.6,67.0,84,65,39,30.08,29.94,13,8,24,0.00
2013-7-25,94.5,15.8,0.0,72.3,71.1,69.2,51,8,48,30.09,30.08,7,1,13,0.00
2013-7-26,99.9,54.5,0.0,75.2,72.6,69.3,96,42,42,30.09,0.00,12,3,13,0.00
2013-7-27,97.5,50.4,0.0,75.5,72.2,64.5,82,42,53,30.04,0.00,19,7,27,0.50
2013-7-28,98.6,83.4,73.2,75.0,70.9,69.1,89,68,41,30.01,29.90,13,6,20,0.00
2013-7-29,99.7,86.5,77.9,74.3,70.4,62.1,86,62,32,30.10,29.99,16,9,25,0.00
2013-7-30,101.1,79.1,0.0,74.1,70.6,63.3,86,56,31,30.16,0.00,15,7,22,0.00
2013-7-31,100.0,71.4,0.0,73.4,72.0,63.4,92,73,32,30.15,0.00,8,4,8,0.00
2013-8-1,106.0,70.2,0.0,73.4,69.0,64.8,92,46,32,30.15,0.00,14,4,19,0.00
2013-8-2,88.0,78.7,73.6,72.4,68.3,66.9,86,71,55,30.03,28.23,6,2,10,0.00